"2005/01/01",  3.1,  4.3,  2.2
"2005/01/02",  2.5,  3.6,  1.6
"2005/01/03",  2.6,  3.9,  1.4
"2005/01/04",  4.6,  6.3,  3.0
"2005/01/05",  4.4,  5.2,  3.5
"2005/01/06",  3.3,  4.0,  2.3
"2005/01/07",  4.0,  5.3,  2.7
"2005/01/08",  3.7,  4.6,  2.8
"2005/01/09",  3.2,  4.3,  2.1
"2005/01/10",  2.6,  3.8,  1.5
"2005/01/11",  2.4,  3.7,  1.3
"2005/01/12",  1.8,  2.6,  1.1
"2005/01/13",  1.5,  2.6,  0.5
"2005/01/14",  2.0,  3.4,  0.7
"2005/01/15",  3.2,  4.0,  2.8
"2005/01/16",  4.8,  5.4,  4.0
"2005/01/17",  4.3,  5.7,  2.9
"2005/01/18",  4.1,  5.5,  2.7
"2005/01/19",  4.3,  5.4,  3.6
"2005/01/20",  3.8,  5.2,  2.6
"2005/01/21",  3.2,  4.5,  2.2
"2005/01/22",  2.7,  4.0,  1.5
"2005/01/23",  2.0,  2.6,  1.3
"2005/01/24",  2.9,  4.1,  1.7
"2005/01/25",  3.1,  4.6,  1.6
"2005/01/26",  3.4,  4.3,  2.7
"2005/01/27",  2.5,  4.0,  1.3
"2005/01/28",  2.6,  3.9,  1.4
"2005/01/29",  2.9,  4.2,  1.6
"2005/01/30",  3.7,  4.8,  2.8
"2005/01/31",  3.7,  5.2,  2.5
"2005/02/01",  2.8,  4.0,  1.7
"2005/02/02",  2.1,  3.2,  1.0
"2005/02/03",  1.9,  3.1,  0.8
"2005/02/04",  2.0,  3.5,  0.8
"2005/02/05",  2.2,  3.6,  0.9
"2005/02/06",  2.4,  3.9,  0.9
"2005/02/07",  2.7,  4.1,  1.2
"2005/02/08",  3.2,  3.6,  3.0
"2005/02/09",  3.2,  4.7,  1.6
"2005/02/10",  4.8,  6.5,  3.5
"2005/02/11",  4.5,  5.8,  3.0
"2005/02/12",  4.0,  5.4,  2.4
"2005/02/13",  4.1,  5.0,  3.3
"2005/02/14",  3.6,  5.3,  2.0
"2005/02/15",  4.3,  5.9,  2.7
"2005/02/16",  4.2,  4.9,  3.6
"2005/02/17",  5.0,  7.1,  3.3
"2005/02/18",  4.8,  5.7,  4.1
"2005/02/19",  4.1,  4.5,  3.9
"2005/02/20",  4.7,  5.8,  3.7
"2005/02/21",  5.1,  6.8,  3.8
"2005/02/22",  4.5,  6.3,  3.0
"2005/02/23",  4.6,  6.5,  2.8
"2005/02/24",  4.3,  5.1,  3.2
"2005/02/25",  3.4,  4.1,  2.7
"2005/02/26",  3.7,  5.3,  2.3
"2005/02/27",  3.5,  5.5,  1.7
"2005/02/28",  4.8,  6.9,  2.9
"2005/03/01",  5.0,  6.5,  3.5
"2005/03/02",  4.7,  6.5,  2.9
"2005/03/03",  5.3,  6.9,  3.7
"2005/03/04",  3.9,  5.6,  3.2
"2005/03/05",  4.3,  6.5,  2.8
"2005/03/06",  3.9,  4.8,  3.2
"2005/03/07",  3.9,  6.3,  1.8
"2005/03/08",  5.3,  7.8,  3.0
"2005/03/09",  6.2,  8.1,  4.5
"2005/03/10",  6.6,  7.9,  5.6
"2005/03/11",  6.2,  6.8,  5.5
"2005/03/12",  7.1,  8.2,  6.4
"2005/03/13",  6.4,  8.3,  4.9
"2005/03/14",  5.8,  8.1,  3.7
"2005/03/15",  5.8,  7.3,  4.2
"2005/03/16",  6.9,  9.6,  4.7
"2005/03/17",  7.3,  8.4,  6.6
"2005/03/18",  9.2, 10.9,  8.0
"2005/03/19",  7.9,  9.9,  5.9
"2005/03/20",  7.4,  8.6,  6.1
"2005/03/21",  7.6, 10.2,  5.4
"2005/03/22",  7.9,  8.6,  7.0
"2005/03/23",  8.4,  8.9,  7.3
"2005/03/24",  8.0,  9.2,  6.8
"2005/03/25",  7.6,  8.8,  6.4
"2005/03/26",  6.9,  9.2,  4.7
"2005/03/27",  7.9, 10.7,  5.2
"2005/03/28",  8.0,  9.1,  7.5
"2005/03/29",  8.2,  9.1,  7.5
"2005/03/30",  8.4, 10.5,  6.5
"2005/03/31",  8.6, 11.3,  6.1
"2005/04/01",  9.3, 11.8,  6.9
"2005/04/02",  9.3, 10.2,  8.4
"2005/04/03", 10.6, 13.4,  8.3
"2005/04/04",  9.6, 11.6,  8.0
"2005/04/05",  9.0, 12.0,  6.3
"2005/04/06", 10.9, 13.9,  8.1
"2005/04/07", 12.6, 14.4, 11.2
"2005/04/08", 13.9, 16.1, 12.1
"2005/04/09", 13.3, 15.1, 11.4
"2005/04/10", 13.7, 15.7, 12.1
"2005/04/11", 13.0, 14.5, 10.6
"2005/04/12",  9.6, 10.6,  8.6
"2005/04/13",  8.9,  9.7,  8.3
"2005/04/14", 11.0, 13.8,  8.5
"2005/04/15", 12.8, 15.3, 10.6
"2005/04/16", 13.2, 14.7, 12.0
"2005/04/17", 13.1, 15.5, 10.8
"2005/04/18", 13.3, 14.9, 11.9
"2005/04/19", 13.6, 15.6, 11.8
"2005/04/20", 12.6, 13.6, 12.1
"2005/04/21", 13.5, 15.4, 12.0
"2005/04/22", 13.4, 15.3, 11.8
"2005/04/23", 13.5, 15.8, 11.2
"2005/04/24", 13.9, 16.1, 12.0
"2005/04/25", 13.4, 14.6, 12.4
"2005/04/26", 14.2, 16.2, 13.2
"2005/04/27", 14.1, 16.7, 11.5
"2005/04/28", 15.4, 17.7, 13.0
"2005/04/29", 17.1, 19.5, 15.1
"2005/04/30", 17.1, 18.8, 15.4
"2005/05/01", 16.6, 17.9, 15.0
"2005/05/02", 17.3, 18.8, 16.3
"2005/05/03", 16.7, 18.9, 14.8
"2005/05/04", 16.7, 19.2, 14.3
"2005/05/05", 17.0, 18.8, 15.5
"2005/05/06", 15.4, 16.7, 13.8
"2005/05/07", 14.0, 15.8, 12.9
"2005/05/08", 13.9, 14.6, 13.2
"2005/05/09", 14.7, 17.4, 12.7
"2005/05/10", 16.4, 19.0, 14.4
"2005/05/11", 14.9, 16.5, 13.9
"2005/05/12", 13.9, 14.9, 12.8
"2005/05/13", 13.3, 13.9, 12.7
"2005/05/14", 13.9, 16.3, 11.9
"2005/05/15", 14.6, 16.4, 13.3
"2005/05/16", 15.1, 17.7, 12.7
"2005/05/17", 15.7, 17.9, 14.1
"2005/05/18", 16.1, 17.4, 14.6
"2005/05/19", 17.3, 19.5, 15.5
"2005/05/20", 17.4, 18.7, 16.1
"2005/05/21", 17.7, 20.3, 15.3
"2005/05/22", 18.3, 19.8, 16.9
"2005/05/23", 18.7, 21.4, 16.7
"2005/05/24", 17.9, 19.8, 16.5
"2005/05/25", 17.8, 20.5, 15.6
"2005/05/26", 18.3, 21.2, 15.7
"2005/05/27", 19.1, 21.3, 17.1
"2005/05/28", 19.9, 22.2, 17.8
"2005/05/29", 19.2, 20.7, 18.0
"2005/05/30", 17.8, 18.9, 17.0
"2005/05/31", 17.1, 18.3, 16.0
"2005/06/01", 18.6, 21.6, 15.9
"2005/06/02", 19.0, 19.8, 18.2
"2005/06/03", 18.2, 19.6, 17.1
"2005/06/04", 18.1, 19.6, 16.9
"2005/06/05", 19.4, 22.4, 16.9
"2005/06/06", 20.6, 23.3, 18.2
"2005/06/07", 20.4, 22.2, 18.8
"2005/06/08", 20.1, 21.6, 18.6
"2005/06/09", 20.3, 22.0, 18.9
"2005/06/10", 20.1, 20.7, 19.4
"2005/06/11", 20.6, 22.4, 19.1
"2005/06/12", 22.3, 24.6, 20.4
"2005/06/13", 22.3, 24.0, 21.1
"2005/06/14", 21.5, 22.7, 20.4
"2005/06/15", 19.9, 21.2, 18.9
"2005/06/16", 18.8, 19.4, 18.3
"2005/06/17", 19.9, 22.2, 17.7
"2005/06/18", 20.3, 21.8, 19.3
"2005/06/19", 21.5, 23.5, 19.8
"2005/06/20", 22.6, 25.0, 20.7
"2005/06/21", 23.1, 25.4, 21.2
"2005/06/22", 22.0, 23.3, 21.2
"2005/06/23", 21.5, 22.7, 20.6
"2005/06/24", 22.8, 24.9, 20.7
"2005/06/25", 24.2, 26.8, 21.9
"2005/06/26", 24.6, 26.1, 23.1
"2005/06/27", 24.7, 26.1, 23.2
"2005/06/28", 25.1, 26.7, 23.7
"2005/06/29", 23.8, 25.0, 22.9
"2005/06/30", 23.2, 24.7, 22.2
"2005/07/01", 23.2, 23.8, 22.7
"2005/07/02", 23.6, 25.2, 22.5
"2005/07/03", 21.9, 22.9, 21.1
"2005/07/04", 20.4, 21.2, 19.8
"2005/07/05", 21.5, 23.3, 20.1
"2005/07/06", 20.8, 21.7, 20.1
"2005/07/07", 21.9, 24.0, 20.0
"2005/07/08", 22.4, 23.7, 21.4
"2005/07/09", 21.4, 22.2, 20.8
"2005/07/10", 22.7, 24.6, 20.9
"2005/07/11", 24.3, 26.4, 22.5
"2005/07/12", 22.4, 24.5, 21.0
"2005/07/13", 21.2, 22.2, 20.3
"2005/07/14", 21.0, 21.4, 20.7
"2005/07/15", 22.9, 25.4, 20.8
"2005/07/16", 23.9, 25.2, 22.8
"2005/07/17", 24.6, 26.1, 23.3
"2005/07/18", 25.5, 27.6, 23.5
"2005/07/19", 25.5, 26.8, 24.5
"2005/07/20", 24.4, 25.6, 23.3
"2005/07/21", 24.8, 26.6, 23.3
"2005/07/22", 24.1, 25.3, 23.2
"2005/07/23", 23.4, 24.9, 22.4
"2005/07/24", 23.2, 24.0, 22.3
"2005/07/25", 23.6, 24.4, 22.8
"2005/07/26", 23.1, 23.6, 22.3
"2005/07/27", 24.7, 26.9, 22.9
"2005/07/28", 25.1, 27.0, 23.4
"2005/07/29", 25.7, 27.4, 24.1
"2005/07/30", 26.1, 27.3, 25.0
"2005/07/31", 26.4, 27.8, 25.3
"2005/08/01", 26.5, 27.8, 25.3
"2005/08/02", 26.5, 27.6, 25.5
"2005/08/03", 26.8, 28.6, 25.4
"2005/08/04", 27.3, 29.0, 25.8
"2005/08/05", 27.5, 29.1, 25.9
"2005/08/06", 27.6, 29.2, 26.1
"2005/08/07", 27.8, 29.5, 26.4
"2005/08/08", 27.2, 28.8, 26.2
"2005/08/09", 26.6, 28.1, 25.5
"2005/08/10", 26.0, 26.6, 25.5
"2005/08/11", 26.1, 27.5, 24.7
"2005/08/12", 25.9, 26.6, 25.2
"2005/08/13", 25.3, 26.2, 24.6
"2005/08/14", 26.1, 27.7, 24.6
"2005/08/15", 26.8, 28.4, 25.5
"2005/08/16", 26.2, 27.1, 25.5
"2005/08/17", 25.8, 27.2, 24.6
"2005/08/18", 26.0, 27.1, 25.0
"2005/08/19", 26.9, 28.6, 25.3
"2005/08/20", 27.3, 28.9, 25.9
"2005/08/21", 27.3, 28.6, 26.1
"2005/08/22", 26.7, 27.3, 26.1
"2005/08/23", 25.9, 26.7, 25.0
"2005/08/24", 24.7, 25.4, 24.0
"2005/08/25", 24.1, 24.5, 23.7
"2005/08/26", 24.0, 25.1, 23.1
"2005/08/27", 24.8, 25.8, 24.0
"2005/08/28", 24.1, 24.8, 23.6
"2005/08/29", 24.4, 25.9, 23.1
"2005/08/30", 24.5, 25.9, 23.0
"2005/08/31", 24.7, 25.3, 24.1
"2005/09/01", 24.5, 26.1, 23.1
"2005/09/02", 24.9, 26.4, 23.4
"2005/09/03", 25.5, 26.9, 24.2
"2005/09/04", 24.9, 25.5, 24.4
"2005/09/05", 23.9, 24.4, 23.3
"2005/09/06", 23.3, 23.8, 22.8
"2005/09/07", 24.3, 25.3, 23.4
"2005/09/08", 25.2, 27.0, 23.8
"2005/09/09", 24.3, 25.4, 23.8
"2005/09/10", 24.4, 25.7, 23.4
"2005/09/11", 24.6, 25.9, 23.7
"2005/09/12", 24.6, 26.0, 23.4
"2005/09/13", 24.9, 26.2, 23.8
"2005/09/14", 25.3, 26.5, 24.3
"2005/09/15", 24.2, 25.2, 23.1
"2005/09/16", 23.1, 24.1, 22.2
"2005/09/17", 22.9, 24.2, 21.7
"2005/09/18", 23.1, 24.4, 21.8
"2005/09/19", 23.8, 25.1, 22.6
"2005/09/20", 23.7, 24.1, 23.2
"2005/09/21", 23.1, 23.7, 22.5
"2005/09/22", 22.6, 22.8, 22.3
"2005/09/23", 22.8, 23.9, 21.8
"2005/09/24", 22.3, 23.2, 21.6
"2005/09/25", 20.6, 21.6, 19.8
"2005/09/26", 20.2, 21.4, 19.3
"2005/09/27", 20.1, 20.5, 19.7
"2005/09/28", 19.6, 20.3, 19.1
"2005/09/29", 19.6, 20.7, 18.5
"2005/09/30", 19.8, 20.9, 18.7
"2005/10/01", 19.8, 21.1, 18.4
"2005/10/02", 20.7, 22.2, 19.3
"2005/10/03", 21.2, 21.7, 20.8
"2005/10/04", 20.2, 20.8, 19.8
"2005/10/05", 19.5, 19.8, 19.1
"2005/10/06", 19.2, 19.9, 18.7
"2005/10/07", 19.3, 20.0, 18.5
"2005/10/08", 20.3, 20.9, 19.7
"2005/10/09", 19.7, 20.6, 19.0
"2005/10/10", 18.7, 19.1, 18.4
"2005/10/11", 18.4, 18.8, 18.1
"2005/10/12", 18.3, 19.3, 17.5
"2005/10/13", 18.0, 19.8, 16.5
"2005/10/14", 18.9, 20.3, 17.2
"2005/10/15", 19.9, 20.8, 19.3
"2005/10/16", 19.2, 20.1, 18.4
"2005/10/17", 17.9, 18.4, 17.2
"2005/10/18", 16.7, 17.2, 16.2
"2005/10/19", 16.0, 16.3, 15.7
"2005/10/20", 16.2, 17.7, 14.8
"2005/10/21", 16.9, 18.1, 15.9
"2005/10/22", 16.5, 16.9, 16.1
"2005/10/23", 15.9, 16.9, 14.9
"2005/10/24", 15.4, 16.9, 14.0
"2005/10/25", 15.8, 17.4, 14.3
"2005/10/26", 15.4, 16.1, 14.6
"2005/10/27", 14.9, 15.3, 14.4
"2005/10/28", 14.7, 16.5, 13.0
"2005/10/29", 15.2, 16.0, 14.3
"2005/10/30", 15.5, 16.3, 14.9
"2005/10/31", 14.1, 15.2, 13.1
"2005/11/01", 13.1, 14.7, 11.8
"2005/11/02", 12.9, 14.7, 11.2
"2005/11/03", 13.7, 15.1, 12.3
"2005/11/04", 14.0, 15.5, 12.6
"2005/11/05", 13.8, 15.4, 12.3
"2005/11/06", 13.6, 14.1, 13.0
"2005/11/07", 15.0, 16.7, 13.9
"2005/11/08", 13.9, 15.1, 12.7
"2005/11/09", 12.8, 14.1, 11.5
"2005/11/10", 12.6, 14.0, 11.4
"2005/11/11", 11.7, 12.4, 10.9
"2005/11/12", 12.3, 13.7, 11.6
"2005/11/13", 11.6, 12.8, 10.3
"2005/11/14", 11.1, 11.8, 10.1
"2005/11/15", 11.0, 11.5, 10.6
"2005/11/16", 10.4, 11.8,  9.3
"2005/11/17",  9.8, 11.0,  8.7
"2005/11/18",  9.5, 10.9,  8.3
"2005/11/19",  9.2, 10.5,  8.1
"2005/11/20",  8.7, 10.1,  7.4
"2005/11/21",  8.8, 10.1,  7.6
"2005/11/22",  8.8, 10.2,  7.4
"2005/11/23",  8.9,  9.8,  8.0
"2005/11/24",  9.3, 10.8,  8.1
"2005/11/25",  9.3, 10.4,  8.3
"2005/11/26",  9.0, 10.1,  7.7
"2005/11/27",  9.4, 10.7,  8.3
"2005/11/28",  9.0, 10.2,  7.6
"2005/11/29",  9.6, 10.7,  8.8
"2005/11/30",  8.8,  9.9,  7.8
"2005/12/01",  8.3,  9.5,  7.2
"2005/12/02",  7.6,  8.3,  6.6
"2005/12/03",  7.8,  8.8,  6.8
"2005/12/04",  6.6,  7.3,  6.1
"2005/12/05",  6.6,  7.6,  5.7
"2005/12/06",  6.4,  7.3,  5.7
"2005/12/07",  6.1,  7.4,  5.2
"2005/12/08",  6.1,  7.2,  5.1
"2005/12/09",  5.7,  7.0,  4.5
"2005/12/10",  5.4,  6.6,  4.3
"2005/12/11",  5.0,  5.5,  4.5
"2005/12/12",  4.9,  5.9,  4.1
"2005/12/13",  4.1,  5.1,  3.2
"2005/12/14",  3.4,  4.7,  2.3
"2005/12/15",  3.2,  4.4,  2.1
"2005/12/16",  3.1,  4.5,  2.1
"2005/12/17",  3.0,  4.3,  1.8
"2005/12/18",  2.8,  3.7,  2.2
"2005/12/19",  2.0,  3.0,  1.2
"2005/12/20",  2.2,  3.7,  1.0
"2005/12/21",  2.5,  3.8,  1.5
"2005/12/22",  2.7,  3.4,  2.1
"2005/12/23",  2.4,  3.6,  1.4
"2005/12/24",  2.1,  3.2,  1.1
"2005/12/25",  1.7,  2.9,  0.7
"2005/12/26",  1.6,  2.7,  0.7
"2005/12/27",  1.8,  2.9,  0.9
"2005/12/28",  1.8,  3.0,  0.8
"2005/12/29",  1.4,  2.6,  0.3
"2005/12/30",  1.6,  3.0,  0.6
"2005/12/31",  1.8,  3.2,  0.7
